Flag for U.S.A. Weather past 2 weeks in Gloucester, Massachusetts, U.S.A.

Now
79 °F

Sunny.


Feels Like: 80 °F
Forecast: 71 / 81 °F
Wind: 6 mph from South

Location: Beverly Municipal Airport

Current Time: Aug 3, 2015 at 9:35:58 PM

Latest Report: Aug 3, 2015 at 8:53 PM


Visibility: 10 mi

Pressure: 29.76 "Hg

Humidity: 50%

Dew point: 59 °F

Location of GloucesterLocation

Historic Weather in Gloucester — Graph

°F

Gloucester temperature yesterday

Maximum temperature yesterday: 85 °F (at 1:53 PM)
Minimum temperature yesterday: 63 °F (at 5:53 AM)
Average temperature yesterday: 75 °F

Past Weeks' High & Low Weather Summary

 TemperatureHumidityPressure
High91 °F (Jul 20, 1:53 PM)93% (Jul 23, 1:58 AM)30.04 "Hg (Jul 23, 1:58 AM)
Low58 °F (Jul 23, 4:53 AM)32% (Jul 31, 3:53 PM)29.52 "Hg (Jul 21, 7:53 PM)
Average74 °F67%29.81 "Hg
* Reported Jul 19 7:53 PM — Aug 3 7:53 PM, Gloucester, Weather by CustomWeather, © 2015

Note: Actual official high and low records may vary slightly from our data, if they occured in-between our weather recording intervals... More about our weather records

Advertising

Gloucester weather history for previous 24 hours

 ConditionsComfort  
Time TempWeatherWind HumidityBarometerVisibility
7:53 PM
Mon, Aug 3
80 °FSunny.9 mph51%29.74 "Hg10 mi
6:53 PM83 °FSunny.15 mph48%29.72 "Hg10 mi
5:53 PM84 °FSunny.15 mph48%29.72 "Hg10 mi
4:53 PM85 °FScattered clouds.14 mph45%29.72 "Hg10 mi
3:53 PM89 °FPassing clouds.15 mph36%29.73 "Hg10 mi
2:53 PM90 °FScattered clouds.15 mph35%29.74 "Hg10 mi
1:53 PM90 °FPassing clouds.18 mph37%29.76 "Hg10 mi
12:53 PM89 °FPassing clouds.18 mph36%29.77 "Hg10 mi
11:53 AM87 °FSunny.16 mph39%29.80 "Hg10 mi
10:53 AM85 °FSunny.13 mph43%29.80 "Hg10 mi
9:53 AM83 °FSunny.13 mph51%29.81 "Hg10 mi
8:53 AM79 °FSunny.12 mph62%29.82 "Hg10 mi
7:53 AM75 °FSunny.10 mph76%29.82 "Hg10 mi
6:53 AM71 °FSunny.6 mph87%29.83 "Hg8 mi
5:53 AM68 °FClear.6 mph87%29.83 "Hg10 mi
4:53 AM67 °FClear.3 mph87%29.81 "Hg10 mi
3:53 AM67 °FClear.6 mph81%29.82 "Hg10 mi
2:53 AM70 °FClear.6 mph73%29.82 "Hg10 mi
1:53 AM71 °FClear.7 mph71%29.83 "Hg10 mi
12:53 AM70 °FClear.6 mph66%29.83 "Hg10 mi
11:53 PM
Sun, Aug 2
71 °FClear.6 mph63%29.83 "Hg10 mi
10:53 PM73 °FClear.7 mph59%29.84 "Hg10 mi
9:53 PM73 °FClear.5 mph55%29.87 "Hg10 mi
Weather by CustomWeather, © 2015

See weather overviewHow to use our weather pages